This demonstration page uses our WeatherBlox Daily Observations layout. Learn more.

Left ArrowRight Arrow

41.86663, -103.66717

Hourly Observations for August 27, 2021

Temp ( °F °C ) Dew Point ( °F °C ) Humidity (%) Winds ( mph kmh ) Pressure ( in mb ) Visibility ( mi km ) Precip ( " mm )
12:53 am 00:53 Clear 68 20 50 10 53 53 SSW 6 9 29.78 1008 10 16 N/A
1:53 am 01:53 Clear 63 17.2 52 11.1 68 68 ENE 8 13 29.79 1009 10 16 N/A
2:53 am 02:53 Clear 59 15 51 10.6 75 75 NE 3 6 29.80 1009 10 16 N/A
3:53 am 03:53 Clear 58 14.4 51 10.6 78 78 ENE 6 9 29.81 1009 10 16 N/A
4:53 am 04:53 Clear 56 13.3 50 10 81 81 ENE 3 6 29.80 1009 10 16 N/A
5:53 am 05:53 Clear 53 11.7 48 8.9 83 83 NNW 8 13 29.81 1009 10 16 N/A
6:53 am 06:53 Sunny 53 11.7 48 8.9 83 83 NW 7 11 29.84 1011 10 16 N/A
7:53 am 07:53 Sunny 61 16.1 49 9.4 65 65 NNW 9 15 29.84 1010 10 16 N/A
8:53 am 08:53 Sunny 68 20 49 9.4 51 51 WNW 7 11 29.84 1010 10 16 N/A
9:53 am 09:53 Sunny 76 24.4 48 8.9 37 37 WNW 9 15 29.84 1011 10 16 N/A
10:53 am 10:53 Sunny 78 25.6 47 8.3 33 33 VRB 5 7 29.83 1010 10 16 N/A
11:53 am 11:53 Sunny 83 28.3 44 6.7 25 25 N N/A 29.80 1009 10 16 N/A
12:53 pm 12:53 Sunny 86 30 45 7.2 24 24 VRB 5 7 29.77 1008 10 16 N/A
1:53 pm 13:53 Sunny 90 32.2 46 7.8 22 22 NE 5 7 29.75 1008 10 16 N/A
2:53 pm 14:53 Sunny 92 33.3 47 8.3 21 21 NE 8 13 29.73 1007 10 16 N/A
3:53 pm 15:53 Sunny 92 33.3 46 7.8 21 21 ENE 10 17 29.71 1006 10 16 N/A
4:53 pm 16:53 Sunny 92 33.3 46 7.8 21 21 E 12 19 29.71 1006 10 16 N/A
5:53 pm 17:53 Sunny 89 31.7 50 10 26 26 E 10 17 29.70 1006 10 16 N/A
6:53 pm 18:53 Sunny 84 28.9 50 10 31 31 E 9 15 29.70 1006 10 16 N/A
7:53 pm 19:53 Clear 80 26.7 50 10 35 35 E 12 19 29.70 1006 10 16 N/A
8:31 pm 20:31 Clear with Thunderstorms 79 26.1 52 11.1 39 39 ESE 10 17 29.58 1002 10 16 0.00 0.00
8:53 pm 20:53 Clear with Nearby Thunderstorms 79 26.1 51 10.6 38 38 NNW 14 22 29.73 1007 10 16 0.00 0.00
9:12 pm 21:12 Clear with Thunderstorms 82 27.8 49 9.4 32 32 ENE 10 17 29.59 1002 10 16 N/A
9:33 pm 21:33 Clear 81 27.2 48 8.9 32 32 E 10 17 29.60 1002 10 16 N/A
9:44 pm 21:44 Clear with Nearby Thunderstorms 80 26.7 48 8.9 33 33 ENE 12 19 29.59 1002 10 16 N/A
9:53 pm 21:53 Clear with Nearby Thunderstorms 80 26.7 48 8.9 33 33 ENE 7 11 29.72 1006 10 16 N/A
10:04 pm 22:04 Clear 79 26 48 9 34 34 E 13 20 29.60 1002 10 16 N/A
10:32 pm 22:32 Clear with Nearby Thunderstorms 81 27 46 8 30 30 SE 15 24 29.60 1002 10 16 N/A
10:41 pm 22:41 Partly Cloudy with Thunderstorms 83 28.3 46 7.8 27 27 SSE 6 9 29.60 1002 10 16 0.00 0.00
10:53 pm 22:53 Partly Cloudy with Light Rain 76 24.4 52 11.1 43 43 VRB 7 11 29.75 1007 10 16 0.01 0.25
11:53 pm 23:53 Mostly Cloudy with Light Rain 77 25 50 10 39 39 SE 16 26 29.71 1006 10 16 0.00 0.00

Powered by AerisWeather